Simultaneous Nadir Overpasses (SNOs) Predictions

Prediction of SNOs between METOP-C and LANDSAT-8 Satellite Orbit:

Table of predicted SNOs for the next 14.0 days since TLE Epoch: 2/15/2020
Index Date (METOP-C) Time (METOP-C) Lat,Lon (METOP-C) SZA (METOP-C ) Date (LANDSAT-8) Time (LANDSAT-8) Lat,Lon (LANDSAT-8) SZA (LANDSAT-8 ) Distance(km) Time Diff (sec)
1 02/15/2020 16:53:41 81.07, -34.57 95.32 02/15/2020 16:53:54 81.07, -34.58 95.33 0.42 13
2 02/15/2020 17:44:21 -81.09, 133.40 84.62 02/15/2020 17:43:20 -81.09, 133.37 84.65 0.58 61
3 02/18/2020 12:27:56 81.07, 31.85 94.35 02/18/2020 12:28:08 81.06, 31.75 94.34 1.92 12
4 02/18/2020 13:18:36 -81.09,-160.17 85.59 02/18/2020 13:17:34 -81.09,-160.29 85.63 2.13 62
5 02/21/2020 08:02:13 81.05, 97.91 93.31 02/21/2020 08:02:23 81.05, 98.05 93.32 2.48 10
6 02/21/2020 08:52:53 -81.08, -94.11 86.63 02/21/2020 08:51:49 -81.08, -93.96 86.64 2.67 64
7 02/24/2020 03:36:28 81.07, 164.71 92.34 02/24/2020 03:36:37 81.07, 164.70 92.34 0.38 9
8 02/24/2020 04:27:08 -81.09, -27.32 87.60 02/24/2020 04:26:03 -81.09, -27.29 87.62 0.69 65
9 02/26/2020 23:10:43 81.07,-128.86 91.31 02/26/2020 23:10:51 81.06,-129.02 91.29 3.04 8




NCC Satellite Simultaneous Nadir Overpasses (SNOs) Prediction Service
